TimeEDT,TemperatureF,Dew PointF,Humidity,Sea Level PressureIn,VisibilityMPH,Wind Direction,Wind SpeedMPH,Gust SpeedMPH,PrecipitationIn,Events,Conditions,WindDirDegrees,DateUTC
12:53 AM,75.0,71.1,87,29.99,10.0,Calm,Calm,-,N/A,,Clear,0,2013-08-09 04:53:00
1:53 AM,73.9,71.1,91,29.99,10.0,SSW,3.5,-,N/A,,Clear,210,2013-08-09 05:53:00
2:53 AM,73.9,71.1,91,29.98,10.0,SW,3.5,-,N/A,,Partly Cloudy,230,2013-08-09 06:53:00
3:53 AM,73.0,71.1,93,29.99,8.0,Calm,Calm,-,N/A,,Partly Cloudy,0,2013-08-09 07:53:00
4:53 AM,73.0,70.0,90,29.98,10.0,Calm,Calm,-,N/A,,Clear,0,2013-08-09 08:53:00
5:53 AM,73.9,70.0,87,29.99,10.0,SSW,3.5,-,N/A,,Clear,200,2013-08-09 09:53:00
6:53 AM,73.0,70.0,90,30.01,9.0,Calm,Calm,-,N/A,,Clear,0,2013-08-09 10:53:00
7:53 AM,75.0,71.1,87,30.01,7.0,SW,4.6,-,N/A,,Mostly Cloudy,220,2013-08-09 11:53:00
8:53 AM,79.0,73.0,82,30.01,10.0,SW,5.8,-,N/A,,Clear,220,2013-08-09 12:53:00
9:53 AM,84.0,73.0,69,30.01,10.0,WSW,11.5,-,N/A,,Partly Cloudy,250,2013-08-09 13:53:00
10:53 AM,87.1,73.9,65,30.02,10.0,WSW,12.7,-,N/A,,Overcast,240,2013-08-09 14:53:00
11:21 AM,86.0,73.4,66,30.05,10.0,WSW,13.8,-,N/A,,Scattered Clouds,240,2013-08-09 15:21:00
11:53 AM,87.1,73.9,65,30.01,10.0,SW,11.5,-,N/A,,Partly Cloudy,230,2013-08-09 15:53:00
12:53 PM,89.1,73.0,59,30.01,10.0,WSW,10.4,-,N/A,,Scattered Clouds,250,2013-08-09 16:53:00
1:53 PM,91.0,73.9,57,29.99,10.0,WSW,11.5,-,N/A,,Mostly Cloudy,240,2013-08-09 17:53:00
2:53 PM,91.9,72.0,52,29.99,10.0,WSW,12.7,-,N/A,,Scattered Clouds,240,2013-08-09 18:53:00
3:53 PM,91.9,72.0,52,29.97,10.0,SW,9.2,-,N/A,,Partly Cloudy,230,2013-08-09 19:53:00
4:53 PM,91.9,72.0,52,29.94,10.0,SW,10.4,-,N/A,,Clear,230,2013-08-09 20:53:00
5:53 PM,89.1,73.9,61,29.95,10.0,SSW,8.1,-,N/A,,Clear,210,2013-08-09 21:53:00
6:53 PM,84.9,75.0,72,29.96,10.0,SW,11.5,17.3,N/A,,Clear,220,2013-08-09 22:53:00
7:53 PM,81.0,73.9,79,29.98,10.0,SSW,5.8,-,N/A,,Clear,200,2013-08-09 23:53:00
8:53 PM,80.1,72.0,76,29.99,10.0,SW,4.6,-,N/A,,Clear,220,2013-08-10 00:53:00
9:53 PM,78.1,72.0,81,30.00,10.0,SSW,6.9,-,N/A,,Partly Cloudy,210,2013-08-10 01:53:00
10:53 PM,77.0,72.0,84,30.02,10.0,SW,3.5,-,N/A,,Clear,220,2013-08-10 02:53:00
11:53 PM,77.0,71.1,82,30.02,10.0,SW,4.6,-,N/A,,Clear,230,2013-08-10 03:53:00